Location: Kirtland Hills
(41.6239°N, 81.3071°W)
Time: 23:36:58
(UTC+00:00)

OAO 2 Rocket - Pass Details

Date: 29 October 2020
Orbit: 676 x 746 km, 35.0° (Epoch: 29 November)

Event Time Altitude Azimuth Distance (km) Brightness Sun altitude
Rises 23:37:00 0° 254° (WSW) 3,068 8.4 -14.4°
Reaches altitude 10° 23:39:33 10° 246° (WSW) 2,139 7.0 -14.8°
Maximum altitude 23:44:11 39° 179° (S) 1,024 4.2 -15.7°
Enters shadow 23:46:57 21° 123° (ESE) 1,515 4.6 -16.2°
